This is the latest recevied weather packets stored in our database for station/object BV1EV-2. If no packets are shown the sender has not sent any weather packets the latest 1 day(s).
| Time | Temp. | Humidity | Pressure | Rain* | Wind** | Luminosity | Snow |
|---|---|---|---|---|---|---|---|
| 1777988267 | 29.44° C | 41% | 1012.9 hPa | - | - | - | - |
| 1777987067 | 30° C | 45% | 1013 hPa | - | - | - | - |
| 1777985867 | 30° C | 44% | 1013 hPa | - | - | - | - |
| 1777984668 | 30° C | 45% | 1013.1 hPa | - | - | - | - |
| 1777983468 | 30° C | 45% | 1013 hPa | - | - | - | - |
| 1777982268 | 29.44° C | 46% | 1013.1 hPa | - | - | - | - |
| 1777981068 | 29.44° C | 46% | 1012.4 hPa | - | - | - | - |
| 1777979867 | 27.22° C | 51% | 1011.9 hPa | - | - | - | - |
| 1777978667 | 26.67° C | 49% | 1011.7 hPa | - | - | - | - |
| 1777977467 | 26.67° C | 49% | 1011.8 hPa | - | - | - | - |
| 1777976267 | 26.67° C | 48% | 1012.3 hPa | - | - | - | - |
| 1777975067 | 26.67° C | 47% | 1012.3 hPa | - | - | - | - |
| 1777973867 | 27.78° C | 39% | 1012.2 hPa | - | - | - | - |
| 1777972668 | 27.78° C | 40% | 1012.1 hPa | - | - | - | - |
| 1777971467 | 28.33° C | 40% | 1011.8 hPa | - | - | - | - |
| 1777970267 | 28.33° C | 41% | 1011.6 hPa | - | - | - | - |
| 1777969067 | 28.33° C | 42% | 1011.6 hPa | - | - | - | - |
| 1777967867 | 28.33° C | 43% | 1011.7 hPa | - | - | - | - |
| 1777966667 | 28.33° C | 44% | 1011.8 hPa | - | - | - | - |
| 1777965467 | 28.89° C | 46% | 1011.8 hPa | - | - | - | - |
| 1777964267 | 29.44° C | 53% | 1012.2 hPa | - | - | - | - |
| 1777963067 | 28.89° C | 54% | 1012.5 hPa | - | - | - | - |
* Rain since midnight (hover to see other rain measurements)
** Current wind speed in m/s (hover to see current wind gust speed)